Le nostre stazioni meteo in Italia

Pubblicità
Il mio iltempo24.it
Firenze/Peretola, Italia (16170): Temperatura & dewpoint: 14.04.2018 20:00:00 - 20.04.2018 20:00:00 (CEST)Firenze/Peretola, Italia (16170): velocità del vento: 14.04.2018 20:00:00 - 20.04.2018 20:00:00 (CEST)Firenze/Peretola, Italia (16170): direzione del vento: 14.04.2018 20:00:00 - 20.04.2018 20:00:00 (CEST)Firenze/Peretola, Italia (16170): reduced air pressure: 14.04.2018 20:00:00 - 20.04.2018 20:00:00 (CEST)Firenze/Peretola, Italia (16170): visibility: 14.04.2018 20:00:00 - 20.04.2018 20:00:00 (CEST)Firenze/Peretola, Italia (16170): precipitazioni: 14.04.2018 20:00:00 - 20.04.2018 20:00:00 (CEST)
Data & Tempo tt [°C] td [°C] ff [km/h] ff [kn] dd ppp [hPa] vv [km] rr [mm]
20.04.2018 20:00:00 24,0 5,8 9 5 N 1019,4 20 -
20.04.2018 19:00:00 25,0 9,0 18 10 NNE - 10 -
20.04.2018 18:00:00 26,0 7,0 26 14 NNE - 10 -
20.04.2018 17:00:00 26,5 8,3 26 14 NE 1020,0 25 0,0
20.04.2018 16:00:00 27,0 8,0 28 15 NNE - 10 -
20.04.2018 15:00:00 27,0 9,0 21 11 NE - 10 -
20.04.2018 14:00:00 27,4 6,9 21 11 NNE 1021,6 10 -
20.04.2018 13:00:00 27,0 8,0 21 11 NNE - 10 -
20.04.2018 12:00:00 26,0 10,0 16 9 NE - 10 -
20.04.2018 11:00:00 24,7 8,9 22 12 NE 1023,0 10 0,0
20.04.2018 10:00:00 24,0 8,0 8 4 NE - 10 -
20.04.2018 09:00:00 21,0 10,0 8 4 E - 10 -
20.04.2018 08:00:00 17,3 9,6 4 2 ESE 1023,2 30 -
20.04.2018 07:00:00 15,0 7,0 11 6 NE - 10 -
20.04.2018 06:00:00 16,0 6,0 9 5 NE - 10 -
20.04.2018 05:00:00 14,5 6,8 8 4 ENE 1023,3 30 0,0
20.04.2018 04:00:00 17,0 7,0 4 2 - - 10 -
20.04.2018 03:00:00 18,0 8,0 11 6 NNE - 10 -
20.04.2018 02:00:00 16,1 8,3 4 2 N 1023,9 30 -
20.04.2018 01:00:00 18,0 8,0 4 2 - - 10 -
20.04.2018 00:00:00 20,0 8,0 13 7 NNE - 10 -
19.04.2018 23:00:00 19,7 8,0 8 4 NO 1024,3 15 0,0
19.04.2018 22:00:00 21,0 8,0 11 6 - - 10 -
19.04.2018 21:00:00 21,0 8,0 5 3 - - 10 -
19.04.2018 20:00:00 21,8 9,2 9 5 N 1024,2 20 -
19.04.2018 19:00:00 23,0 9,0 22 12 NNE - 10 -
19.04.2018 18:00:00 24,0 10,0 28 15 NNE - 10 -
19.04.2018 17:00:00 23,8 10,1 26 14 NNE 1024,1 10 0,0
19.04.2018 16:00:00 25,0 10,0 21 11 NNE - 10 -
19.04.2018 15:00:00 25,0 11,0 18 10 NNE - 10 -
19.04.2018 14:00:00 24,4 9,3 15 8 NNE 1025,5 10 -
19.04.2018 13:00:00 24,0 9,0 21 11 NNE - 10 -
19.04.2018 12:00:00 23,0 9,0 18 10 N - 10 -
19.04.2018 11:00:00 21,7 8,4 16 9 NE 1027,2 10 0,0
19.04.2018 10:00:00 20,0 8,0 11 6 - - 10 -
19.04.2018 09:00:00 20,0 6,0 4 2 - - 10 -
19.04.2018 08:00:00 18,3 6,9 4 2 E 1027,1 35 -
19.04.2018 07:00:00 17,0 6,0 16 9 E - 10 -
19.04.2018 06:00:00 16,0 7,0 13 7 ESE - 10 -
19.04.2018 05:00:00 17,5 6,0 5 3 N 1026,8 20 0,0
19.04.2018 04:00:00 16,0 6,0 9 5 NO - 10 -
19.04.2018 03:00:00 17,0 7,0 8 4 N - 10 -
19.04.2018 02:00:00 17,2 6,3 13 7 NNE 1027,5 10 -
19.04.2018 01:00:00 16,0 6,0 2 1 - - 10 -
19.04.2018 00:00:00 16,0 6,0 11 6 ONO - 10 -
18.04.2018 23:00:00 18,2 6,3 5 3 NNE 1027,2 10 0,0
18.04.2018 22:00:00 19,0 6,0 8 4 N - 10 -
18.04.2018 21:00:00 19,0 6,0 5 3 - - 10 -
18.04.2018 20:00:00 20,2 5,6 21 11 NE 1026,2 10 -
18.04.2018 19:00:00 21,0 6,0 21 11 NE - 10 -
18.04.2018 18:00:00 22,0 6,0 22 12 NE - 10 -
18.04.2018 17:00:00 22,3 6,7 18 10 NE 1026,1 10 0,0
18.04.2018 16:00:00 23,0 9,0 22 12 NE - 10 -
18.04.2018 15:00:00 22,0 8,0 26 14 ENE - 10 -
18.04.2018 14:00:00 22,9 7,4 13 7 - 1026,4 10 -
18.04.2018 13:00:00 22,0 7,0 18 10 NNE - 10 -
18.04.2018 12:00:00 22,0 7,0 21 11 ENE - 10 -
18.04.2018 11:00:00 22,0 8,0 28 15 ENE - 10 -
18.04.2018 10:00:00 22,0 9,0 11 6 NE - 10 -
18.04.2018 09:00:00 20,0 10,0 15 8 NNE - 10 -
18.04.2018 08:00:00 18,1 11,1 5 3 NE 1025,7 10 -
18.04.2018 07:00:00 18,0 9,0 11 6 N - 10 -
18.04.2018 06:00:00 14,0 10,0 5 3 - - 10 -
18.04.2018 05:00:00 15,0 9,2 8 4 - 1024,8 10 0,0
18.04.2018 04:00:00 - - - - - - - -
18.04.2018 03:00:00 15,0 9,0 9 5 SSO - 10 -
18.04.2018 02:00:00 17,1 9,3 9 5 NNO 1024,9 10 -
18.04.2018 01:00:00 16,0 10,0 9 5 NNE - 10 -
18.04.2018 00:00:00 17,0 10,0 4 2 - - 10 -
17.04.2018 23:00:00 18,3 10,2 11 6 N 1023,7 10 0,0
17.04.2018 22:00:00 - - - - - - - -
17.04.2018 21:00:00 20,0 11,0 18 10 NNE - 10 -
17.04.2018 20:00:00 20,7 9,9 15 8 NNE 1021,4 10 -
17.04.2018 19:00:00 22,0 10,0 16 9 NNE - 10 -
17.04.2018 18:00:00 24,0 10,0 18 10 NNE - 10 -
17.04.2018 17:00:00 24,0 10,3 18 10 NE 1019,7 10 0,0
17.04.2018 16:00:00 25,0 12,0 16 9 NNE - 10 -
17.04.2018 15:00:00 24,0 10,0 16 9 NNE - 10 -
17.04.2018 14:00:00 23,6 10,2 13 7 NNE 1019,8 20 -
17.04.2018 13:00:00 24,0 14,0 8 4 O - 10 -
17.04.2018 12:00:00 20,0 14,0 5 3 - - 10 -
17.04.2018 11:00:00 17,6 12,5 4 2 - 1020,6 10 0,0
17.04.2018 10:00:00 16,0 12,0 4 2 - - 10 -
17.04.2018 09:00:00 14,0 11,0 2 1 - - 10 -
17.04.2018 08:00:00 12,5 11,3 2 1 - 1019,2 10 -
17.04.2018 07:00:00 11,0 10,0 2 1 - - 10 -
17.04.2018 06:00:00 11,0 10,0 2 1 - - 10 -
17.04.2018 05:00:00 10,7 8,9 5 3 ENE 1017,6 10 0,0
17.04.2018 04:00:00 11,0 10,0 5 3 E - 10 -
17.04.2018 03:00:00 11,0 9,0 8 4 ENE - 10 -
17.04.2018 02:00:00 12,0 9,6 5 3 ENE 1016,6 10 -
17.04.2018 01:00:00 13,0 10,0 2 1 - - 10 -
17.04.2018 00:00:00 14,0 10,0 4 2 - - 10 -
16.04.2018 23:00:00 16,1 10,1 5 3 SSO 1014,9 10 0,0
16.04.2018 22:00:00 16,0 11,0 8 4 SSE - 10 -
16.04.2018 21:00:00 17,0 10,0 5 3 OSO - 10 -
16.04.2018 20:00:00 18,6 10,0 9 5 SSO 1012,3 25 -
16.04.2018 19:00:00 21,0 11,0 18 10 SO - 10 -
16.04.2018 18:00:00 22,0 12,0 21 11 SO - 10 -
16.04.2018 17:00:00 22,9 11,9 22 12 SO 1010,3 10 0,0
16.04.2018 16:00:00 24,0 12,0 11 6 O - 10 -
16.04.2018 15:00:00 24,0 11,0 16 9 SO - 10 -
16.04.2018 14:00:00 23,6 11,1 13 7 - 1010,1 10 -
16.04.2018 13:00:00 23,0 11,0 11 6 OSO - 10 -
16.04.2018 12:00:00 21,0 11,0 5 3 - - 10 -
16.04.2018 11:00:00 19,8 10,9 5 3 O 1010,6 10 0,0
16.04.2018 10:00:00 17,0 10,0 2 1 - - 10 -
16.04.2018 09:00:00 15,0 10,0 4 2 - - 10 -
16.04.2018 08:00:00 12,3 10,1 5 3 ESE 1009,4 10 -
16.04.2018 07:00:00 10,0 9,0 2 1 - - 10 -
16.04.2018 06:00:00 10,0 8,0 5 3 SE - 10 -
16.04.2018 05:00:00 10,4 7,7 5 3 SE 1008,6 10 0,0
16.04.2018 04:00:00 11,0 8,0 4 2 - - 10 -
16.04.2018 03:00:00 12,0 8,0 4 2 - - 10 -
16.04.2018 02:00:00 13,8 8,9 4 2 - 1007,9 10 -
16.04.2018 01:00:00 17,0 8,0 13 7 N - 10 -
16.04.2018 00:00:00 16,0 9,0 2 1 - - 10 -
15.04.2018 23:00:00 16,9 8,3 11 6 SSO 1008,5 10 0,0
15.04.2018 22:00:00 18,0 8,0 11 6 SO - 10 -
15.04.2018 21:00:00 18,0 8,0 5 3 S - 10 -
15.04.2018 20:00:00 18,7 8,3 8 4 - 1006,6 10 -
15.04.2018 19:00:00 21,0 6,0 9 5 O - 10 -
15.04.2018 18:00:00 20,0 8,0 16 9 - - 10 -
15.04.2018 17:00:00 19,7 7,5 29 16 NNE 1006,2 10 0,0
15.04.2018 16:00:00 19,0 9,0 11 6 E - 10 -
15.04.2018 15:00:00 - - - - - - - -
15.04.2018 14:00:00 20,4 7,6 11 6 SO 1008,5 10 -
15.04.2018 13:00:00 19,0 7,0 39 21 NNE - 10 -
15.04.2018 12:00:00 18,0 10,0 13 7 - - 10 -
15.04.2018 11:00:00 18,3 7,5 4 2 - 1009,3 10 0,0
15.04.2018 10:00:00 19,0 6,0 9 5 - - 10 -
15.04.2018 09:00:00 19,0 7,0 16 9 - - 10 -
15.04.2018 08:00:00 18,5 6,2 9 5 N 1009,4 10 -
15.04.2018 07:00:00 18,0 6,0 13 7 O - 10 -
15.04.2018 06:00:00 19,0 5,0 13 7 OSO - 10 -
15.04.2018 05:00:00 18,7 5,3 9 5 - 1010,4 10 0,0
15.04.2018 04:00:00 19,0 4,0 16 9 - - 10 -
15.04.2018 03:00:00 18,0 5,0 24 13 NNE - 10 -
15.04.2018 02:00:00 18,2 4,8 21 11 NNE 1013,7 10 -
15.04.2018 01:00:00 18,0 5,0 11 6 - - 10 -
15.04.2018 00:00:00 18,0 3,0 11 6 ENE - 10 -
14.04.2018 23:00:00 18,0 3,6 8 4 - 1015,0 10 0,0
14.04.2018 22:00:00 18,0 4,0 21 11 ONO - 10 -
14.04.2018 21:00:00 18,0 5,0 11 6 - - 10 -
14.04.2018 20:00:00 18,8 6,3 18 10 N 1015,0 10 -

tt = Temperatura
td = dewpoint
ff = velocità del vento
dd = direzione del vento
ppp = reduced air pressure
vv = visibility
rr = precipitazioni

Stazioni seguenti

WeatherPro
AMSI
MeteoEarth